#timestamp,LO_Frequency,Hit,StdDev 
1607749215.9,286047001.5,N
1607749235.7,286047002.0,N
1607749255.5,286047004.0,Y
1607749275.4,286047002.1,P
1607749295.2,286047002.1,P
1607749315.0,286047002.2,P
1607749315.9,286047002.2,Y
1607749335.8,286046999.7,P
1607749355.6,286046999.7,N
1607749375.4,286047000.5,N
1607749395.3,286047001.9,N
1607749415.1,286047003.6,Y
1607749435.8,286047003.8,P
1607749455.7,286047004.0,N
1607749475.5,286047001.3,N
1607749495.3,286047002.0,N
1607749515.2,286047001.6,N
1607749535.0,286047001.9,N
1607749535.9,286047001.9,N
1607749555.7,286047002.5,N
1607749575.6,286047000.0,N
1607749595.4,286047001.4,N
1607749615.2,286047001.4,N
1607749635.1,286047003.2,N
1607749636.0,286047003.2,N
1607749655.8,286047003.6,Y
1607749675.6,286047001.8,P
1607749695.5,286047004.2,P
1607749715.3,286047004.1,P
1607749735.1,286047005.6,Y
1607749755.9,286047003.9,P
1607749775.7,286046999.8,N
1607749795.5,286047004.3,N
1607749815.4,286047001.3,N
1607749835.2,286047003.9,N
1607749855.0,286047003.0,N
1607749856.0,286047003.0,N
1607749875.8,286047005.3,Y
1607749895.6,286047001.5,P
1607749915.5,286047004.2,P
1607749935.3,286047003.2,N
1607749955.1,286047003.3,Y
1607749975.9,286047002.5,P
1607749995.7,286047002.6,P
1607750015.5,286047001.7,P
1607750035.4,286047004.4,Y
1607750055.2,286047000.4,P
1607750075.0,286047000.6,N
1607750075.9,286047000.6,N
1607750095.8,286047000.7,N
1607750115.6,286047000.5,N
1607750135.4,286047002.8,Y
1607750155.3,286047000.2,P
1607750175.1,286047002.8,P
1607750176.0,286047002.8,N
1607750195.8,286047002.6,N
1607750215.7,286047001.6,N
1607750235.5,286047003.1,Y
1607750255.3,286046999.7,P
1607750275.2,286047002.0,N
1607750295.9,286047002.3,N
1607750315.7,286046999.8,N
1607750335.6,286047002.7,N
1607750355.4,286047000.4,N
1607750375.2,286047000.6,N
1607750395.1,286047002.7,N
1607750396.0,286047002.7,N
1607750415.8,286047000.1,N
1607750435.6,286047002.7,N
1607750455.5,286047004.4,Y
1607750475.3,286047001.6,P
1607750495.1,286047001.5,P
1607750515.9,286047004.2,P
1607750535.7,286047003.2,N
1607750555.5,286047004.4,Y
1607750575.4,286047000.1,P
1607750595.2,286047002.7,N
1607750615.0,286047002.7,N
1607750615.9,286047002.7,N
1607750635.8,286047002.0,N
1607750655.6,286047003.1,Y
1607750675.4,286046999.7,P
1607750695.3,286047002.3,N
1607750715.1,286047001.4,N
1607750735.8,286047001.5,N
1607750755.7,286047001.9,N
1607750775.5,286047001.7,N
1607750795.3,286047004.1,Y
1607750815.2,286047001.8,P
1607750835.0,286047001.7,P
1607750835.9,286047001.7,P
1607750855.7,286047001.5,Y
1607750875.6,286047000.9,P
1607750895.4,286046999.9,N
1607750915.2,286047002.1,N
1607750935.1,286046999.9,N
1607750936.0,286046999.9,N
1607750955.8,286047004.4,Y
1607750975.6,286047001.7,P
1607750995.5,286047003.1,P
1607751015.3,286047003.2,P
1607751035.2,286047003.5,Y
1607751055.9,286047002.4,P
1607751075.7,286047000.0,N
1607751095.6,286047001.9,N
1607751115.4,286047001.5,N
1607751135.2,286047003.9,Y
1607751155.1,286047000.3,P
1607751156.0,286047000.3,N
1607751175.8,286047002.1,P
1607751195.6,286047000.1,N
1607751215.5,286046999.8,N
1607751235.3,286047002.2,N
1607751255.1,286047002.4,N
1607751275.9,286047000.4,N
1607751295.7,286047002.6,N
1607751315.5,286047003.9,Y
1607751335.4,286047003.8,P
1607751355.2,286047001.4,N
1607751375.0,286047002.3,N
1607751375.9,286047002.3,N
1607751395.8,286047000.2,N
1607751415.6,286047000.8,N
1607751435.4,286047000.1,N
1607751455.3,286047002.7,N
1607751475.1,286047000.1,N
1607751476.0,286047000.1,N
1607751495.8,286047000.2,N
1607751515.7,286046998.2,N
1607751535.5,286046998.1,N
1607751555.3,286047000.5,N
1607751575.2,286047001.9,N
1607751595.9,286046999.8,N
1607751615.7,286047002.3,N
1607751635.6,286047001.6,N
1607751655.4,286047002.0,N
1607751675.2,286047002.1,N
1607751695.1,286047002.2,N
1607751696.0,286047002.2,N
1607751715.8,286046999.7,N
1607751735.6,286047000.2,N
1607751755.5,286047002.6,N
1607751775.3,286047002.5,N
1607751795.1,286046999.7,N
1607751815.9,286047002.0,N
1607751835.7,286046999.7,N
1607751855.5,286047000.5,N
1607751875.4,286047001.0,N
1607751895.2,286047001.1,N
1607751915.0,286046999.9,N
1607751915.9,286046999.9,N
1607751935.8,286047000.3,N
1607751955.6,286047001.2,N
1607751975.4,286047000.5,N
1607751995.3,286046999.3,N
1607752015.1,286046999.4,N
1607752016.0,286046999.4,N
1607752035.8,286046998.2,N
1607752055.7,286046998.5,N
1607752075.5,286047001.0,N
1607752095.3,286046998.4,N
1607752115.2,286047000.7,N
1607752135.9,286046998.6,N
1607752155.7,286047000.8,N
1607752175.6,286046998.6,N
1607752195.4,286046999.3,N
1607752215.2,286046998.7,N
1607752235.1,286046996.9,N
1607752236.0,286046996.9,N
1607752255.8,286046996.8,N
1607752275.6,286046999.4,N
1607752295.5,286046999.5,N
1607752315.3,286046996.9,N
1607752335.1,286046997.2,N
1607752355.9,286046999.5,N
1607752375.7,286046998.8,N
1607752395.5,286046999.3,N
1607752415.4,286046999.4,N
1607752435.2,286046996.6,N
1607752455.0,286046996.5,N
1607752455.9,286046996.5,N
1607752475.8,286046997.4,N
1607752495.6,286046997.8,N
1607752515.4,286046997.8,N
1607752535.3,286046997.5,N
1607752555.1,286046997.9,N
1607752556.0,286046997.9,N
1607752575.8,286046995.3,Y
1607752595.7,286046996.7,P
1607752615.5,286046995.1,P
1607752635.3,286046995.3,P
1607752655.2,286046997.8,N
1607752675.9,286046997.4,N
1607752695.7,286046997.8,N
1607752715.6,286046995.2,Y
1607752735.4,286046999.0,P
1607752755.2,286046999.0,N
1607752775.1,286046998.9,N
1607752776.0,286046998.9,N
1607752795.8,286046999.1,N
